User: anonymous
Location: Unspecified
(0.0000°N, 0.0000°E)
Time: 06:11:15
(UTC+02:00)
Language:

Cosmos 1892 Rocket - Orbit

View from above orbital plane
View from above orbital plane
View from above satellite
View from above satellite

Ground track
Ground track

The orbit data is extracted from the following two-line orbital elements,

1 18422U 87088B   14208.78314602  .00000130  00000-0  13320-4 0  3029
2 18422 082.5107 085.5747 0018451 317.1450 109.9756 14.82399812445421
Epoch (UTC): 27 July 2014 18:47:43
Eccentricity: 0.0018451
inclination: 82.5107°
perigee height: 609 km
apogee height: 634 km
right ascension of ascending node: 85.5747°
argument of perigee: 317.1450°
revolutions per day: 14.82399812
mean anomaly at epoch: 109.9756°
orbit number at epoch: 44542

The dashed part of the orbit path shows where the satellite is in the earth's shadow,  

DLR